EW7144 Weather Reports


time (UTC)temp
C
wind
direction
speed
KPH
gust
KPH
rain 1hr
cm
rain 24hr
cm
rain mn
cm
humidity
%
barometer
mb
20260901230905 15 273 9.7 22.5 0.00 0.00 0.00 74 1015.6
20260901230406 15 254 9.7 29.0 0.00 0.00 0.00 74 1015.7
20260901225905 15 257 14.5 32.2 0.00 0.00 0.00 74 1015.5
20260901225407 15 267 11.3 25.7 0.00 0.00 0.00 76 1015.6
20260901224905 15 266 11.3 27.4 0.00 0.00 0.00 76 1015.7
20260901224406 14 232 11.3 41.8 0.00 0.00 0.00 76 1015.8
20260901223906 14 221 14.5 27.4 0.00 0.00 0.00 75 1015.7
20260901223405 14 246 9.7 33.8 0.00 0.00 0.00 76 1015.6
20260901222405 14 259 11.3 33.8 0.00 0.00 0.00 75 1015.6
20260901221905 14 308 14.5 32.2 0.00 0.00 0.00 75 1015.6
20260901221405 14 300 9.7 27.4 0.00 0.00 0.00 76 1015.6
20260901220906 13 348 8.0 27.4 0.00 0.00 0.00 75 1015.6
20260901220405 13 293 12.9 33.8 0.00 0.00 0.00 75 1015.5
20260901215906 13 274 14.5 32.2 0.00 0.00 0.00 75 1015.5
20260901215406 13 329 12.9 33.8 0.00 0.00 0.00 75 1015.5
20260901214405 13 335 12.9 33.8 0.00 0.00 0.00 76 1015.6
20260901213405 13 334 12.9 29.0 0.00 0.00 0.00 75 1015.6
20260901212905 13 337 12.9 37.0 0.00 0.00 0.00 75 1015.4
20260901212405 13 294 11.3 40.2 0.00 0.00 0.00 75 1015.4
20260901211905 13 310 9.7 32.2 0.00 0.00 0.00 75 1015.5
20260901211405 13 294 11.3 25.7 0.00 0.00 0.00 75 1015.5
20260901210405 13 270 8.0 29.0 0.00 0.00 0.00 75 1015.6
20260901205905 12 306 8.0 19.3 0.00 0.00 0.00 75 1015.7
20260901205407 12 203 8.0 33.8 0.00 0.00 0.00 75 1015.8
20260901204906 12 239 9.7 29.0 0.00 0.00 0.00 75 1015.9
20260901204405 12 216 9.7 20.9 0.00 0.00 0.00 76 1015.8
20260901203904 12 205 12.9 24.1 0.00 0.00 0.00 76 1015.8
20260901202906 11 210 11.3 40.2 0.00 0.00 0.00 78 1015.8
20260901202405 11 215 11.3 29.0 0.00 0.00 0.00 79 1015.9
20260901201905 11 223 9.7 19.3 0.00 0.00 0.00 79 1016.0
20260901201406 11 214 9.7 29.0 0.00 0.00 0.00 80 1016.0
20260901200905 10 293 9.7 19.3 0.00 0.00 0.00 80 1016.0
20260901200405 10 320 8.0 20.9 0.00 0.00 0.00 81 1016.1
20260901195904 10 225 6.4 16.1 0.00 0.00 0.00 81 1016.0
20260901194905 10 224 6.4 20.9 0.00 0.00 0.00 81 1015.9
20260901194405 10 233 9.7 24.1 0.00 0.00 0.00 81 1015.8
20260901193905 10 223 9.7 20.9 0.00 0.00 0.00 81 1015.8
20260901193405 10 315 11.3 37.0 0.00 0.00 0.00 82 1015.7
20260901192906 10 218 6.4 20.9 0.00 0.00 0.00 82 1015.6
20260901191905 10 200 8.0 32.2 0.00 0.00 0.00 83 1015.6
20260901191405 10 216 14.5 32.2 0.00 0.00 0.00 83 1015.4
20260901190905 10 350 4.8 19.3 0.00 0.00 0.00 83 1015.5
20260901190406 10 269 6.4 19.3 0.00 0.00 0.00 83 1015.5
20260901185905 10 226 9.7 20.9 0.00 0.00 0.00 83 1015.6
20260901185405 10 290 4.8 19.3 0.00 0.00 0.00 84 1015.5
20260901184905 10 235 8.0 22.5 0.00 0.00 0.00 84 1015.4
20260901184405 10 261 8.0 20.9 0.00 0.00 0.00 84 1015.5
20260901183905 11 282 9.7 25.7 0.00 0.00 0.00 84 1015.5
20260901183405 11 214 11.3 25.7 0.00 0.00 0.00 83 1015.7
20260901182905 10 256 9.7 22.5 0.00 0.00 0.00 83 1015.4
20260901182404 10 280 4.8 19.3 0.00 0.00 0.00 83 1015.4
20260901181905 10 276 4.8 20.9 0.00 0.00 0.00 83 1015.3
20260901180905 10 225 6.4 24.1 0.00 0.00 0.00 83 1015.4
20260901180405 10 297 8.0 20.9 0.00 0.00 0.00 83 1015.3
20260901175905 10 278 4.8 14.5 0.00 0.00 0.00 82 1015.3
20260901175405 10 270 8.0 14.5 0.00 0.00 0.00 82 1015.3
20260901174405 10 293 3.2 16.1 0.00 0.00 0.00 82 1015.2
20260901173905 10 239 6.4 16.1 0.00 0.00 0.00 81 1015.2
20260901173405 10 230 9.7 19.3 0.00 0.00 0.00 81 1015.2
20260901172905 10 218 9.7 27.4 0.00 0.00 0.00 81 1015.3
20260901172405 10 198 9.7 24.1 0.00 0.00 0.00 82 1015.3
20260901171905 10 219 9.7 22.5 0.00 0.00 0.00 82 1015.2
20260901171405 10 305 11.3 25.7 0.00 0.00 0.00 82 1015.1
20260901170904 10 265 9.7 27.4 0.00 0.00 0.00 83 1014.9
20260901170404 10 244 8.0 27.4 0.00 0.00 0.00 84 1014.9
20260901165905 10 202 9.7 22.5 0.00 0.00 0.00 84 1014.9
20260901164905 10 228 6.4 16.1 0.00 0.00 0.00 84 1014.8
20260901163904 10 210 9.7 24.1 0.00 0.00 0.00 83 1014.7
20260901162905 10 236 9.7 25.7 0.00 0.00 0.00 83 1014.7
20260901162405 10 218 11.3 24.1 0.00 0.00 0.00 83 1014.7
20260901161905 10 205 11.3 32.2 0.00 0.00 0.00 83 1014.7
20260901160905 11 203 11.3 35.4 0.00 0.00 0.00 83 1014.7
20260901160405 11 185 11.3 32.2 0.00 0.00 0.00 83 1014.8
20260901155905 11 208 11.3 24.1 0.00 0.00 0.00 83 1014.7
20260901155405 11 249 12.9 29.0 0.00 0.00 0.00 83 1014.6
20260901154905 11 190 12.9 24.1 0.00 0.00 0.00 83 1014.7
20260901154405 10 216 14.5 35.4 0.00 0.00 0.00 83 1014.7
20260901153904 10 204 11.3 27.4 0.00 0.00 0.00 83 1014.6
20260901153405 11 211 12.9 27.4 0.00 0.00 0.00 83 1014.6
20260901152905 10 217 14.5 33.8 0.00 0.00 0.00 83 1014.6
20260901152404 10 254 11.3 32.2 0.00 0.00 0.00 83 1014.6
20260901151905 10 239 11.3 32.2 0.00 0.00 0.00 83 1014.7
20260901151405 10 283 11.3 27.4 0.00 0.00 0.00 84 1014.8
20260901150905 10 228 9.7 29.0 0.00 0.00 0.00 83 1014.6
20260901150405 10 196 8.0 25.7 0.00 0.00 0.00 83 1014.8
20260901145904 10 230 11.3 24.1 0.00 0.00 0.00 82 1014.8
20260901144905 10 209 11.3 27.4 0.00 0.00 0.00 82 1014.9
20260901143905 10 190 8.0 19.3 0.00 0.00 0.00 82 1015.0
20260901142405 10 224 9.7 19.3 0.00 0.00 0.00 81 1015.1
20260901141904 10 204 11.3 20.9 0.00 0.00 0.00 81 1015.0
20260901141405 10 225 11.3 24.1 0.00 0.00 0.00 81 1015.1
20260901140905 10 212 8.0 27.4 0.00 0.00 0.00 81 1015.1
20260901140405 10 225 9.7 22.5 0.00 0.00 0.00 81 1015.2
20260901135904 10 212 11.3 24.1 0.00 0.00 0.00 81 1015.2
20260901135404 10 207 11.3 24.1 0.00 0.00 0.00 81 1015.2
20260901134905 10 208 11.3 24.1 0.00 0.00 0.00 81 1015.2
20260901133904 10 216 11.3 25.7 0.00 0.00 0.00 82 1015.3
20260901133405 10 197 12.9 29.0 0.00 0.00 0.00 82 1015.1
20260901132905 10 220 11.3 32.2 0.00 0.00 0.00 82 1015.0
20260901132404 10 232 14.5 35.4 0.00 0.00 0.00 82 1015.0
20260901131905 10 213 14.5 33.8 0.00 0.00 0.00 82 1015.0
20260901130904 10 217 9.7 19.3 0.00 0.00 0.00 83 1015.0
20260901130405 10 241 8.0 20.9 0.00 0.00 0.00 83 1015.1
20260901125905 10 213 11.3 27.4 0.00 0.00 0.00 83 1015.2
20260901125405 10 198 11.3 22.5 0.00 0.00 0.00 84 1015.1
20260901124904 10 219 14.5 32.2 0.00 0.00 0.00 84 1015.1
20260901124405 10 227 9.7 22.5 0.00 0.00 0.00 84 1015.3
20260901123904 10 227 11.3 22.5 0.00 0.00 0.00 85 1015.1
20260901123405 10 202 9.7 25.7 0.00 0.00 0.00 85 1015.0
20260901122905 10 217 14.5 25.7 0.00 0.00 0.00 85 1015.1
20260901122405 10 218 9.7 24.1 0.00 0.00 0.00 85 1015.2
20260901121905 10 197 11.3 27.4 0.00 0.00 0.00 85 1015.2
20260901121405 10 196 11.3 27.4 0.00 0.00 0.00 85 1015.3
20260901120904 10 229 14.5 32.2 0.00 0.00 0.00 85 1015.3
20260901120404 10 221 14.5 32.2 0.00 0.00 0.00 86 1015.1
20260901115905 10 228 11.3 25.7 0.00 0.03 0.00 85 1015.2
20260901115405 10 220 11.3 29.0 0.00 0.03 0.00 85 1015.1
20260901114904 10 250 11.3 27.4 0.00 0.03 0.00 85 1015.2
20260901113904 10 238 9.7 27.4 0.00 0.03 0.00 84 1015.3
20260901113405 10 201 11.3 25.7 0.00 0.03 0.00 84 1015.3
20260901112904 10 243 8.0 22.5 0.00 0.03 0.00 83 1015.4
20260901112404 10 275 8.0 27.4 0.00 0.03 0.00 82 1015.4
20260901111904 10 232 9.7 20.9 0.00 0.03 0.00 82 1015.5
20260901111405 10 248 11.3 33.8 0.00 0.03 0.00 81 1015.6
20260901110905 10 201 9.7 22.5 0.00 0.03 0.00 80 1015.6
20260901110404 10 223 11.3 25.7 0.00 0.03 0.00 80 1015.7
20260901105905 10 203 9.7 22.5 0.00 0.03 0.00 80 1015.7
20260901105405 10 207 11.3 22.5 0.00 0.03 0.00 79 1015.7
20260901104905 10 229 11.3 29.0 0.00 0.03 0.00 79 1015.6
20260901104405 10 212 11.3 29.0 0.00 0.03 0.00 78 1015.6
20260901103405 10 211 9.7 24.1 0.00 0.03 0.00 78 1015.7
20260901102904 10 217 11.3 29.0 0.00 0.03 0.00 77 1015.7
20260901102404 10 212 11.3 25.7 0.00 0.03 0.00 77 1015.6
20260901101904 10 216 11.3 29.0 0.00 0.03 0.00 77 1015.6
20260901101406 10 224 12.9 33.8 0.00 0.03 0.00 76 1015.5
20260901100906 10 199 14.5 32.2 0.00 0.03 0.00 76 1015.5
20260901100407 10 211 12.9 25.7 0.00 0.03 0.00 76 1015.5
20260901095904 10 215 12.9 25.7 0.00 0.03 0.00 76 1015.5
20260901095405 10 201 11.3 35.4 0.00 0.03 0.00 76 1015.5
20260901094905 10 201 11.3 20.9 0.00 0.03 0.00 76 1015.5
20260901094406 10 217 9.7 22.5 0.00 0.03 0.00 76 1015.5
20260901093905 10 219 11.3 24.1 0.00 0.03 0.00 75 1015.6
20260901093404 10 245 9.7 24.1 0.00 0.03 0.00 75 1015.6
20260901092905 10 263 9.7 22.5 0.00 0.03 0.00 76 1015.4
20260901091905 10 221 8.0 27.4 0.00 0.03 0.00 75 1015.3
20260901091405 10 230 8.0 22.5 0.00 0.03 0.00 76 1015.3
20260901084906 10 227 9.7 29.0 0.00 0.03 0.00 76 1015.2
20260901084405 10 213 12.9 27.4 0.00 0.03 0.00 77 1015.0
20260901083905 10 280 11.3 24.1 0.00 0.03 0.00 77 1015.0
20260901083405 10 208 11.3 22.5 0.00 0.03 0.00 77 1014.9
20260901082906 10 221 14.5 25.7 0.00 0.03 0.00 77 1014.8
20260901082404 10 197 11.3 24.1 0.00 0.03 0.00 77 1014.8
20260901081904 10 228 11.3 24.1 0.00 0.03 0.00 77 1014.7
20260901081405 10 220 9.7 25.7 0.00 0.03 0.00 77 1014.8
20260901080905 10 202 12.9 25.7 0.00 0.03 0.00 77 1014.8
20260901080404 10 215 11.3 33.8 0.00 0.03 0.00 77 1014.8
20260901075904 10 224 14.5 29.0 0.00 0.03 0.00 77 1014.8
20260901075404 10 243 11.3 24.1 0.00 0.03 0.00 77 1014.8
20260901074904 10 225 11.3 27.4 0.00 0.03 0.00 77 1014.8
20260901074405 10 237 12.9 25.7 0.00 0.03 0.00 77 1014.8
20260901073904 10 284 9.7 22.5 0.00 0.03 0.00 77 1014.8
20260901073405 10 240 9.7 32.2 0.00 0.03 0.00 77 1014.7
20260901072904 10 246 9.7 29.0 0.00 0.03 0.00 77 1014.7
20260901071905 10 200 9.7 24.1 0.00 0.05 0.00 77 1014.6
20260901071405 10 261 9.7 20.9 0.00 0.05 0.00 76 1014.6
20260901070405 10 197 8.0 19.3 0.00 0.05 0.00 76 1014.6
20260901065905 10 197 14.5 32.2 0.00 0.05 0.00 75 1014.5
20260901065405 10 266 11.3 27.4 0.00 0.05 0.00 75 1014.4
20260901064905 10 203 11.3 32.2 0.00 0.05 0.00 75 1014.4
20260901064405 10 210 11.3 20.9 0.00 0.05 0.00 75 1014.4
20260901063904 10 280 8.0 24.1 0.00 0.05 0.00 75 1014.4
20260901063405 10 251 12.9 22.5 0.00 0.05 0.00 75 1014.3
20260901062909 10 206 9.7 40.2 0.00 0.05 0.00 74 1014.2
20260901062406 10 215 9.7 22.5 0.00 0.05 0.00 75 1014.2
20260901061405 10 220 8.0 25.7 0.00 0.05 0.00 74 1014.2
20260901060905 10 269 12.9 27.4 0.00 0.05 0.00 74 1014.2
20260901055905 10 214 14.5 24.1 0.00 0.05 0.00 74 1014.1
20260901055405 10 231 9.7 24.1 0.00 0.05 0.00 74 1014.1
20260901054905 11 254 12.9 25.7 0.00 0.05 0.00 74 1014.0
20260901054405 11 327 9.7 22.5 0.00 0.05 0.00 74 1013.9
20260901053405 11 220 9.7 29.0 0.00 0.05 0.00 73 1013.9
20260901052405 11 199 16.1 32.2 0.00 0.05 0.00 72 1013.7
20260901051905 11 258 11.3 27.4 0.00 0.05 0.00 71 1013.7
20260901051405 12 352 11.3 38.6 0.00 0.05 0.00 71 1013.6
20260901050405 12 296 11.3 29.0 0.00 0.05 0.00 70 1013.8
20260901045905 12 230 14.5 35.4 0.00 0.05 0.00 69 1013.7
20260901045405 12 275 9.7 25.7 0.00 0.05 0.00 69 1013.6
20260901044905 12 247 11.3 32.2 0.00 0.05 0.00 68 1013.5
20260901043905 12 225 14.5 32.2 0.00 0.05 0.00 69 1013.5
20260901043405 12 254 11.3 32.2 0.00 0.05 0.00 70 1013.6
20260901042904 12 213 16.1 32.2 0.00 0.05 0.00 69 1013.5
20260901042405 13 250 12.9 29.0 0.00 0.05 0.00 69 1013.4
20260901041905 13 276 11.3 32.2 0.00 0.05 0.00 69 1013.3
20260901041405 13 246 11.3 32.2 0.00 0.05 0.00 68 1013.3
20260901040905 13 247 9.7 37.0 0.00 0.05 0.00 69 1013.2
20260901040405 13 222 11.3 32.2 0.00 0.05 0.00 69 1013.2
20260901035405 13 197 9.7 29.0 0.00 0.05 0.00 69 1013.0
20260901034905 13 238 12.9 29.0 0.00 0.05 0.00 69 1013.2
20260901034405 12 219 9.7 32.2 0.00 0.05 0.00 70 1013.1
20260901033905 12 343 14.5 29.0 0.00 0.05 0.00 71 1013.1
20260901033405 11 222 14.5 33.8 0.00 0.05 0.00 71 1013.2
20260901032905 11 260 16.1 33.8 0.00 0.05 0.00 71 1013.2
20260901032404 12 219 16.1 35.4 0.00 0.05 0.00 70 1013.3
20260901031905 12 216 22.5 51.5 0.00 0.05 0.00 69 1013.1
20260901031405 12 239 20.9 46.7 0.00 0.05 0.00 69 1013.1
20260901030905 12 222 19.3 45.1 0.00 0.05 0.00 67 1013.0
20260901025905 12 203 19.3 38.6 0.00 0.05 0.00 66 1013.1
20260901024905 13 331 16.1 29.0 0.00 0.05 0.00 65 1012.9
20260901024405 13 223 14.5 29.0 0.00 0.05 0.00 66 1012.7
20260901023905 13 201 14.5 32.2 0.00 0.05 0.00 68 1012.7
20260901022405 13 293 17.7 37.0 0.00 0.05 0.00 66 1012.6
20260901021905 13 202 14.5 33.8 0.00 0.05 0.00 68 1012.6
20260901021405 13 304 19.3 37.0 0.00 0.05 0.00 67 1012.5
20260901020905 13 232 20.9 40.2 0.00 0.05 0.00 66 1012.7
20260901015905 13 291 9.7 29.0 0.00 0.05 0.00 68 1012.7
20260901015405 13 235 16.1 37.0 0.00 0.05 0.00 68 1012.8
20260901014905 13 309 14.5 35.4 0.00 0.05 0.00 67 1012.7
20260901014404 13 266 16.1 35.4 0.00 0.05 0.00 65 1012.7
20260901013904 13 229 16.1 33.8 0.00 0.05 0.00 65 1012.7
20260901013404 13 209 14.5 32.2 0.00 0.05 0.00 65 1012.7
20260901012905 13 230 16.1 46.7 0.00 0.05 0.00 66 1012.7
20260901012405 13 213 19.3 37.0 0.00 0.05 0.00 65 1012.5
20260901011405 13 283 17.7 33.8 0.00 0.05 0.00 66 1012.7
20260901010905 13 235 17.7 35.4 0.00 0.05 0.00 65 1012.7
20260901010404 13 252 17.7 51.5 0.00 0.05 0.00 65 1012.8
20260901005905 13 248 14.5 33.8 0.00 0.05 0.00 66 1012.8
20260901005405 13 213 19.3 35.4 0.00 0.05 0.00 66 1012.9
20260901004905 13 204 19.3 37.0 0.00 0.05 0.00 66 1013.0
20260901004405 13 287 11.3 37.0 0.00 0.05 0.00 67 1013.1
20260901003904 13 206 19.3 32.2 0.00 0.05 0.00 66 1013.2
20260901003405 13 259 11.3 37.0 0.00 0.05 0.00 66 1013.1
20260901002905 13 227 14.5 32.2 0.00 0.05 0.00 65 1013.2
20260901002404 13 212 11.3 33.8 0.00 0.05 0.00 65 1013.3
20260901001904 13 202 22.5 46.7 0.00 0.05 0.00 64 1013.2
20260901001405 13 218 19.3 40.2 0.00 0.05 0.00 63 1013.1
20260901000405 13 297 14.5 27.4 0.00 0.05 0.00 65 1013.1
20260831235905 13 294 12.9 29.0 0.00 0.05 0.00 65 1013.1
20260831235405 13 209 11.3 22.5 0.00 0.05 0.00 66 1013.1
20260831234905 13 230 11.3 25.7 0.00 0.05 0.00 67 1013.1
20260831233406 12 225 17.7 33.8 0.00 0.05 0.00 67 1013.2
20260831232905 12 264 12.9 29.0 0.00 0.05 0.00 66 1013.2
20260831232405 13 261 14.5 25.7 0.00 0.05 0.00 65 1013.2
20260831231905 13 215 11.3 24.1 0.00 0.05 0.00 66 1013.3
20260831231404 13 234 11.3 27.4 0.00 0.05 0.00 66 1013.2